sat.trackr.live / text

‹ back to catalog

STARLINK-36830

NORAD 68110 · 2026-044K

PAYLOAD ACTIVE UNKNOWN

§ Identity

Operator
Country
US
Launch date
2026-03-08
Launch site
AFWTR
Launch vehicle
Mass (kg)
RCS (m²)

Purposes: comms

External: N2YO · Heavens-Above · Gunter

§ Orbital elements

Epoch: 2026-05-24T20:25:48.114048Z

Period
93.91 min
Inclination
97.2836°
Eccentricity
0.0001404
Mean motion
15.33417590 rev/d
Perigee alt
464.7 km
Apogee alt
466.6 km
Semi-major
6,843.8 km
B*
2.9109e-4
RAAN
105.4617°
Arg perigee
26.9515°
Mean anomaly
333.1800°
Rev number
1,325

§ Raw data

STARLINK-368301 68110U 26044K   26144.85125132  .00009326  00000+0  29109-3 0  99992 68110  97.2836 105.4617 0001404  26.9515 333.1800 15.33417590 13251

JSON: /api/v1/satellites/68110 · /tle

For live sub-satellite position, see the globe view (requires WebGL).

§ Visibility from observer

Set your observer location to see the next 7 days of passes ≥ 10°. The values pass through the URL so the page stays shareable.

No JS? Fill the form by hand. The geolocation button needs JavaScript.